Regional Weather Roundup
Issued by NWS

Home | Current Version | Previous Version | Text Only | Print | Product List | Glossary Off
Versions: 1 2 3 4 5 6 7 8 9 10 11 12 13 14 15 16 17 18 19 20 21 22 23 24 25 26 27 28 29 30 31 32 33 34 35 36 37 38 39 40 41 42 43 44 45 46 47 48 49 50

390
ASUS43 KMPX 230001
RWRMN
WEATHER ROUNDUP FOR MINNESOTA
NATIONAL WEATHER SERVICE TWIN CITIES/CHANHASSEN MN
600 PM CST MON JAN 22 2018


NOTE: "FAIR" INDICATES FEW OR NO CLOUDS BELOW 12,000 FEET WITH NO
SIGNIFICANT WEATHER AND/OR OBSTRUCTIONS TO VISIBILITY. N/A MEANS
CURRENT SKY AND/OR WEATHER CONDITIONS ARE NOT AVAILABLE.

MNZ060>063-068>070-230100-
   Twin Cities Metro

CITY           SKY/WX    TMP DP  RH WIND       PRES   REMARKS
TWIN CITIES    LGT SNOW  27  26  96 N23G32    29.72R VSB 3/4 WCI  12
6HR MIN TEMP:  27; 6HR MAX TEMP:  30; 6HR PCP:  0.47;

ST PAUL        LGT SNOW  27  25  92 N20G28    29.73R VSB 3/4 WCI  13
CRYSTAL        LGT SNOW  27  22  81 N18G28    29.73R VSB 3/4 WCI  14
BLAINE         HVY SNOW  28  27  93 N21G30    29.73R VSB 1/4 WCI  15
LAKEVILLE        N/A     27  27 100 N16G22    29.69R WCI  14
EDEN PRAIRIE   LGT SNOW  28  24  85 N17G32    29.69S FOG     WCI  16
6HR MIN TEMP:  28; 6HR MAX TEMP:  30; 6HR PCP:  0.09;

SOUTH ST PAUL  LGT SNOW  28  27  96 N14G24    29.71R WCI  17
LAKE ELMO        N/A     28  27  93 N16G22    29.72R WCI  17
$$
MNZ001>005-007-008-013>017-022>024-027-028-230100-
   Northwest Minnesota

CITY           SKY/WX    TMP DP  RH WIND       PRES   REMARKS
BEMIDJI        CLOUDY    23  19  86 NE7       29.98S WCI  15
HALLOCK        CLOUDY    27  18  69 NE8       30.09S WCI  18
ROSEAU         CLOUDY    23  18  80 E9        30.08R WCI  13
WARROAD        CLOUDY    21  16  79 NE10      30.08S WCI  10
THIEF RVR FALL CLOUDY    23  19  86 NE12      30.06R WCI  12
CROOKSTON      CLOUDY    25  19  80 NE8       30.07S WCI  16
FOSSTON        CLOUDY    21  19  93 NE7       30.01S WCI  13
DETROIT LAKES  CLOUDY    27  23  86 NE8       29.97R WCI  18
MOORHEAD       CLOUDY    25  21  86 N14       30.03R WCI  13
PARK RAPIDS    CLOUDY    24  18  77 N9        29.94R WCI  14
MAHNOMEN       CLOUDY    24  20  86 NE15      29.99R WCI  11
$$
MNZ006-009>011-018-025>026-230100-
   North Central Minnesota

CITY           SKY/WX    TMP DP  RH WIND       PRES   REMARKS
BAUDETTE       CLOUDY    21  15  78 N12       30.04R WCI   9
FLAG ISLAND    CLOUDY    19  14  79 NE13      30.09R WCI   7
INTL FALLS     CLOUDY    19  13  77 N10       30.02R WCI   7
6HR MIN TEMP:  19; 6HR MAX TEMP:  21;

WASKISH        CLOUDY    21  19  93 N8        30.02R WCI  12
BIG FORK       CLOUDY    23  18  80 N6        29.97S WCI  16
LONGVILLE      CLOUDY    25  19  80 N8        29.93R WCI  16
GRAND RAPIDS   CLOUDY    23  18  81 N10       29.94R WCI  12
CRANE LAKE     CLOUDY    18  14  86 N6        30.02R WCI   9
ORR            CLOUDY    19  12  73 CALM      29.95S
COOK           CLOUDY    19  16  86 N7        29.95S WCI  10
WALKER         CLOUDY    23  17  79 N10G16    29.95S WCI  12
$$
MNZ012-019>021-037-230100-
   Northeast Minnesota

CITY           SKY/WX    TMP DP  RH WIND       PRES   REMARKS
DULUTH         CLOUDY    23  19  85 N8        29.86R WCI  14
6HR MIN TEMP:  23; 6HR MAX TEMP:  25;

HIBBING        FAIR      20  15  81 N10       29.91R WCI   9
EVELETH        MOCLDY    22  16  76 N9G17     29.92R WCI  12
DULUTH HARBOR  CLOUDY    28  25  86 N17       29.90S WCI  16
TWO HARBORS    CLOUDY    27  21  80 N6        29.86R WCI  20
SILVER BAY     CLOUDY    23  19  86 VRB8      29.86R WCI  14
GRAND MARAIS     N/A     23  12  62 N14G33    29.87F WCI  11
G MARAIS ARPRT FAIR      12   7  79 N9G16     29.84S WCI   0
$$
MNZ029>031-032-039>041-046>048-054>057-064-230100-
   West Central Minnesota

CITY           SKY/WX    TMP DP  RH WIND       PRES   REMARKS
FERGUS FALLS   CLOUDY    27  21  80 N9        29.95R WCI  17
WHEATON        CLOUDY    27  21  80 N14G20    29.98R WCI  15
MORRIS         CLOUDY    28  21  74 N16       29.91R WCI  17
ALEXANDRIA     CLOUDY    28  22  78 N17       29.89R WCI  16
ELBOW LAKE     CLOUDY    27  23  84 N9        29.94R WCI  18
WADENA         CLOUDY    23  19  86 N17G24    29.92R WCI   9
GLENWOOD       FAIR      28  23  80 N15G23    29.87R WCI  17
APPLETON       CLOUDY    30  23  74 N20G26    29.90R WCI  18
BENSON         CLOUDY    30  23  74 NE15G23   29.90R WCI  19
ORTONVILLE     CLOUDY    28  21  74 N18       29.93R WCI  16
MADISON        CLOUDY    30  25  80 N20G30    29.90R WCI  18
WILLMAR        CLOUDY    30  25  80 N16G23    29.85R WCI  19
$$
MNZ033>034-036-042>043-049>051-058-059-230100-
   Central Minnesota

CITY           SKY/WX    TMP DP  RH WIND       PRES   REMARKS
ST CLOUD       CLOUDY    28  23  81 N21G29    29.81S WCI  15
6HR MIN TEMP:  27; 6HR MAX TEMP:  29;

SAUK CENTRE      N/A     28  23  79 N14G20    29.86R WCI  17
PAYNESVILLE    CLOUDY    30  26  83 N13G20    29.84R WCI  20
AITKIN         CLOUDY    25  19  80 N13       29.88R WCI  13
PINE RIVER     CLOUDY    25  19  80 N9        29.95R WCI  15
BRAINERD       CLOUDY    28  20  71 N13       29.89R WCI  17
STAPLES        CLOUDY    25  19  80 N16       29.90S WCI  12
LONG PRAIRIE   CLOUDY    28  23  80 NW12G23   29.87R WCI  18
LITTLE FALLS   CLOUDY    30  19  64 N7        29.86S WCI  23
LITCHFIELD     CLOUDY    30  27  86 N22G28    29.80R WCI  17
BUFFALO        LGT SNOW  27  24  89 N12G22    29.78R WCI  17
MAPLE LAKE     MIX PCPN  29  26  86 MISG      29.80R
HUTCHINSON     MIX PCPN  29  26  86 N17G28    29.77R WCI  17
$$
MNZ037-044-045-052-053-230100-
   East Central Minnesota

CITY           SKY/WX    TMP DP  RH WIND       PRES   REMARKS
PRINCETON      CLOUDY    28  25  86 N13G24    29.81R WCI  18
MORA           CLOUDY    27  23  86 NE12G18   29.84R WCI  16
CAMBRIDGE      LGT SNOW  28  23  80 N15G24    29.80R WCI  17
RUSH CITY      LGT SNOW  26  24  92 N15G23    29.80S VSB 3/4 WCI  13
MOOSE LAKE     CLOUDY    28  21  74 N9        29.85R WCI  20
HINCKLEY       CLOUDY    28  25  86 N18G28    29.82S WCI  16
CLOQUET        CLOUDY    25  18  74 N8        29.87R WCI  16
MCGREGOR       CLOUDY    27  21  80 N13G20    29.89R WCI  16
$$
MNZ071>073-080-081-089-090-097-098-230100-
   Southwest Minnesota

CITY           SKY/WX    TMP DP  RH WIND       PRES   REMARKS
MONTEVIDEO     CLOUDY    30  25  80 NE18G24   29.87R WCI  18
GRANITE FALLS  CLOUDY    32  26  78 N20G28    29.85R WCI  20
CANBY          CLOUDY    29  25  84 NW16G24   29.90R WCI  18
MARSHALL       CLOUDY    28  25  88 N24       29.83R WCI  14
REDWOOD FALLS  CLOUDY    30  25  81 N18G28    29.79R WCI  18
OLIVIA         CLOUDY    30  27  86 N20G30    29.80R WCI  18
PIPESTONE      CLOUDY    27  23  86 N21G30    29.80R WCI  13
WINDOM         SNOW      27  16  63 N30G37    29.72R VSB 1/2 WCI  10
WORTHINGTON    LGT SNOW  26  25  96 N31G39    29.72R VSB 1   WCI   9
JACKSON        CLOUDY    28  27  93 N18G32    29.70R VSB 1   WCI  16
TRACY          CLOUDY    30  27  88 N21G30    29.79R WCI  17
SLAYTON        CLOUDY    27  25  91 N25G36    29.77R WCI  12
$$
MNZ065>067-074>077-082>085-091>093-230100-
   South Central Minnesota

CITY           SKY/WX    TMP DP  RH WIND       PRES   REMARKS
MANKATO        LGT SNOW  27  25  92 N22G30    29.70R FOG     WCI  13
NEW ULM          N/A     27  25  93 N16G26    29.73R WCI  14
ST JAMES       CLOUDY    27  27 100 N22G30    29.72R WCI  12
FAIRMONT       LGT SNOW  27  26  96 N28       29.67R FOG     WCI  11
FARIBAULT      LGT SNOW  28  27  93 N18       29.67R WCI  16
OWATONNA       CLOUDY    28  27  93 N21G30    29.64R WCI  15
WASECA           N/A     30  28  93 N23       29.66R WCI  17
ALBERT LEA     LGT SNOW  28  28 100 N20G25    29.59R WCI  15
$$
MNZ078>079-086>088-094>096-230100-
   Southeast Minnesota

CITY           SKY/WX    TMP DP  RH WIND       PRES   REMARKS
ROCHESTER      MIX PCPN  30  29  96 N23G32    29.57R WCI  17
6HR MIN TEMP:  30; 6HR MAX TEMP:  32; 6HR PCP:  0.22;

RED WING       CLOUDY    30  25  80 NE16G23   29.65R WCI  19
STANTON        LGT SNOW  29  27  90 N25       29.66R VSB 1   WCI  15
DODGE CENTER   MIX PCPN  28  27  93 N18       29.59R WCI  16
WINONA         LGT RAIN  34  32  93 N3        29.57S
AUSTIN         CLOUDY    30  28  93 N10G17    29.56R WCI  21
PRESTON        CLOUDY    32  30  94 N10       29.54R WCI  23
$$
ABBREVIATIONS USED IN REMARKS
   TC - TEMPERATURES IN CELSIUS
  WCI - WIND CHILL INDEX
   HX - HEAT INDEX
  VSB - VISIBILITY
$$




USA.gov is the U.S. government's official web portal to all federal, state and local government web resources and services.